Time,TemperatureF,DewpointF,PressureIn,WindDirection,WindDirectionDegrees,WindSpeedMPH,WindSpeedGustMPH,Humidity,HourlyPrecipIn,Conditions,Clouds,dailyrainin,SolarRadiationWatts/m^2,SoftwareType,DateUTC
2013-05-09 00:01:00,61.3,61.0,29.96,ESE,107,0.0,2.0,99,0.00,RA,SCT,0.00,0.0,WeatherDisplay:10.37,2013-05-09 04:01:00,
2013-05-09 00:05:00,61.2,60.9,29.96,SSE,159,0.0,2.0,99,0.00,RA,SCT,0.00,0.0,WeatherDisplay:10.37,2013-05-09 04:05:00,
2013-05-09 00:10:00,61.0,60.7,29.96,SSE,148,0.0,2.0,99,0.00,OVC,SCT,0.00,0.0,WeatherDisplay:10.37,2013-05-09 04:10:00,
2013-05-09 00:15:00,60.8,60.5,29.96,East,82,0.0,2.0,99,0.00,OVC,SCT,0.00,0.0,WeatherDisplay:10.37,2013-05-09 04:15:00,
2013-05-09 00:20:00,60.8,60.5,29.95,ENE,75,0.0,2.0,99,0.00,OVC,SCT,0.00,0.0,WeatherDisplay:10.37,2013-05-09 04:20:00,
2013-05-09 00:30:00,60.4,60.2,29.95,ESE,123,1.0,2.0,99,0.00,RA,SCT,0.01,0.0,WeatherDisplay:10.37,2013-05-09 04:30:00,
2013-05-09 00:40:00,60.1,59.9,29.95,East,90,0.0,1.0,99,0.00,OVC,SCT,0.01,0.0,WeatherDisplay:10.37,2013-05-09 04:40:00,
2013-05-09 00:45:00,60.1,59.8,29.95,East,90,0.0,1.0,99,0.00,OVC,SCT,0.01,0.0,WeatherDisplay:10.37,2013-05-09 04:45:00,
2013-05-09 00:55:00,59.9,59.6,29.95,East,90,0.0,2.0,99,0.00,OVC,SCT,0.01,0.0,WeatherDisplay:10.37,2013-05-09 04:55:00,
2013-05-09 01:01:00,59.7,59.4,29.94,East,90,0.0,2.0,99,0.00,OVC,SCT,0.01,0.0,WeatherDisplay:10.37,2013-05-09 05:01:00,
2013-05-09 01:10:00,59.5,59.3,29.94,ESE,107,0.0,2.0,99,0.00,-RA,SCT,0.01,0.0,WeatherDisplay:10.37,2013-05-09 05:10:00,
2013-05-09 01:15:00,59.4,59.1,29.94,ESE,123,0.0,2.0,99,0.00,-RA,SCT,0.01,0.0,WeatherDisplay:10.37,2013-05-09 05:15:00,
2013-05-09 01:25:00,59.3,59.1,29.94,ESE,112,0.0,2.0,99,0.00,-RA,SCT,0.01,0.0,WeatherDisplay:10.37,2013-05-09 05:25:00,
2013-05-09 01:30:00,59.2,58.9,29.94,ESE,113,0.0,3.0,99,0.00,-RA,SCT,0.01,0.0,WeatherDisplay:10.37,2013-05-09 05:30:00,
2013-05-09 01:40:00,58.8,58.5,29.93,SE,135,0.0,2.0,99,0.00,-RA,SCT,0.01,0.0,WeatherDisplay:10.37,2013-05-09 05:40:00,
2013-05-09 01:45:00,58.8,58.5,29.93,SE,135,0.0,1.0,99,0.00,-RA,SCT,0.01,0.0,WeatherDisplay:10.37,2013-05-09 05:45:00,
2013-05-09 01:55:00,58.6,58.4,29.93,SE,135,0.0,1.0,99,0.00,-RA,SCT,0.01,0.0,WeatherDisplay:10.37,2013-05-09 05:55:00,
2013-05-09 02:01:00,58.6,58.3,29.93,SE,135,0.0,1.0,99,0.00,-RA,SCT,0.01,0.0,WeatherDisplay:10.37,2013-05-09 06:01:00,
2013-05-09 02:10:00,58.5,58.2,29.93,SE,135,0.0,2.0,99,0.00,OVC,SCT,0.01,0.0,WeatherDisplay:10.37,2013-05-09 06:10:00,
2013-05-09 02:15:00,58.8,58.6,29.88,SE,145,1.0,6.0,99,0.00,OVC,SCT,0.01,0.0,WeatherDisplay:10.37,2013-05-09 06:15:00,
2013-05-09 02:25:00,58.3,58.0,29.92,SE,145,0.0,2.0,99,0.00,RA,SCT,0.06,0.0,WeatherDisplay:10.37,2013-05-09 06:25:00,
2013-05-09 02:30:00,58.3,58.0,29.92,SE,135,0.0,2.0,99,0.00,OVC,SCT,0.06,0.0,WeatherDisplay:10.37,2013-05-09 06:30:00,
2013-05-09 02:40:00,58.3,58.0,29.92,SE,135,0.0,2.0,99,0.00,OVC,SCT,0.06,0.0,WeatherDisplay:10.37,2013-05-09 06:40:00,
2013-05-09 02:45:00,58.3,58.0,29.92,SE,135,0.0,0.0,99,0.00,OVC,SCT,0.06,0.0,WeatherDisplay:10.37,2013-05-09 06:45:00,
2013-05-09 02:55:00,58.3,58.0,29.91,SE,135,0.0,1.0,99,0.00,BKN,SCT,0.06,0.0,WeatherDisplay:10.37,2013-05-09 06:55:00,
2013-05-09 03:01:00,58.3,58.0,29.91,SE,135,0.0,2.0,99,0.00,BKN,SCT,0.06,0.0,WeatherDisplay:10.37,2013-05-09 07:01:00,
2013-05-09 03:10:00,58.3,58.0,29.92,SE,135,0.0,1.0,99,0.00,SCT,SCT,0.06,0.0,WeatherDisplay:10.37,2013-05-09 07:10:00,
2013-05-09 03:15:00,58.3,58.0,29.91,SE,135,0.0,1.0,99,0.00,SCT,SCT,0.06,0.0,WeatherDisplay:10.37,2013-05-09 07:15:00,
2013-05-09 03:25:00,58.3,58.0,29.91,SE,135,0.0,1.0,99,0.00,SCT,SCT,0.06,0.0,WeatherDisplay:10.37,2013-05-09 07:25:00,
2013-05-09 03:30:00,58.3,58.0,29.91,SE,135,0.0,1.0,99,0.00,SCT,SCT,0.06,0.0,WeatherDisplay:10.37,2013-05-09 07:30:00,
2013-05-09 03:40:00,58.3,58.0,29.91,SE,135,0.0,2.0,99,0.00,SCT,SCT,0.06,0.0,WeatherDisplay:10.37,2013-05-09 07:40:00,
2013-05-09 03:45:00,58.3,58.0,29.91,SE,135,0.0,2.0,99,0.00,SCT,SCT,0.06,0.0,WeatherDisplay:10.37,2013-05-09 07:45:00,
2013-05-09 03:55:00,58.3,58.0,29.91,SE,135,0.0,1.0,99,0.00,SCT,SCT,0.06,0.0,WeatherDisplay:10.37,2013-05-09 07:55:00,
2013-05-09 04:01:00,58.3,58.0,29.90,SE,135,0.0,0.0,99,0.00,SCT,SCT,0.06,0.0,WeatherDisplay:10.37,2013-05-09 08:01:00,
2013-05-09 04:10:00,58.3,58.0,29.90,SE,135,0.0,0.0,99,0.00,CLR,SCT,0.06,0.0,WeatherDisplay:10.37,2013-05-09 08:10:00,
2013-05-09 04:15:00,58.3,58.0,29.90,SE,135,0.0,0.0,99,0.00,CLR,SCT,0.06,0.0,WeatherDisplay:10.37,2013-05-09 08:15:00,
2013-05-09 04:25:00,58.5,58.2,29.90,SE,135,0.0,1.0,99,0.00,CLR,SCT,0.06,0.0,WeatherDisplay:10.37,2013-05-09 08:25:00,
2013-05-09 04:31:00,58.4,58.1,29.90,SE,135,0.0,0.0,99,0.00,CLR,SCT,0.06,0.0,WeatherDisplay:10.37,2013-05-09 08:31:00,
2013-05-09 04:40:00,58.5,58.2,29.89,SE,135,0.0,1.0,99,0.00,BKN,SCT,0.06,0.0,WeatherDisplay:10.37,2013-05-09 08:40:00,
2013-05-09 04:45:00,58.5,58.2,29.89,SE,135,0.0,1.0,99,0.00,BKN,SCT,0.06,0.0,WeatherDisplay:10.37,2013-05-09 08:45:00,
2013-05-09 04:55:00,58.5,58.2,29.90,SE,135,0.0,2.0,99,0.00,FEW,SCT,0.06,0.0,WeatherDisplay:10.37,2013-05-09 08:55:00,
2013-05-09 05:01:00,58.6,58.4,29.89,SE,135,0.0,2.0,99,0.00,FEW,SCT,0.06,0.0,WeatherDisplay:10.37,2013-05-09 09:01:00,
2013-05-09 05:10:00,58.6,58.4,29.89,ESE,111,0.0,2.0,99,0.00,FEW,SCT,0.06,0.0,WeatherDisplay:10.37,2013-05-09 09:10:00,
2013-05-09 05:15:00,58.6,58.4,29.90,NNE,16,0.0,1.0,99,0.00,FEW,SCT,0.06,0.0,WeatherDisplay:10.37,2013-05-09 09:15:00,
2013-05-09 05:25:00,58.6,58.4,29.89,North,0,0.0,1.0,99,0.00,FEW,SCT,0.06,0.0,WeatherDisplay:10.37,2013-05-09 09:25:00,
2013-05-09 05:30:00,58.6,58.4,29.89,North,0,0.0,2.0,99,0.00,FEW,SCT,0.06,0.0,WeatherDisplay:10.37,2013-05-09 09:30:00,
2013-05-09 05:40:00,58.6,58.4,29.90,North,0,0.0,2.0,99,0.00,FEW,SCT,0.06,0.0,WeatherDisplay:10.37,2013-05-09 09:40:00,
2013-05-09 05:45:00,58.6,58.4,29.90,North,0,0.0,1.0,99,0.00,FEW,SCT,0.06,0.0,WeatherDisplay:10.37,2013-05-09 09:45:00,
2013-05-09 05:55:00,58.6,58.4,29.90,North,0,0.0,2.0,99,0.00,FEW,SCT,0.06,0.0,WeatherDisplay:10.37,2013-05-09 09:55:00,
2013-05-09 06:01:00,58.6,58.4,29.89,North,6,0.0,2.0,99,0.00,FEW,SCT,0.06,0.0,WeatherDisplay:10.37,2013-05-09 10:01:00,
2013-05-09 06:10:00,58.7,58.4,29.90,East,88,0.0,1.0,99,0.00,CLR,SCT,0.06,0.0,WeatherDisplay:10.37,2013-05-09 10:10:00,
2013-05-09 06:15:00,58.8,58.5,29.90,NE,40,0.0,2.0,99,0.00,CLR,SCT,0.06,0.0,WeatherDisplay:10.37,2013-05-09 10:15:00,
2013-05-09 06:25:00,58.6,58.4,29.90,North,0,0.0,2.0,99,0.00,FEW,SCT,0.06,0.0,WeatherDisplay:10.37,2013-05-09 10:25:00,
2013-05-09 06:31:00,58.6,58.4,29.90,North,0,0.0,2.0,99,0.00,FEW,SCT,0.06,0.0,WeatherDisplay:10.37,2013-05-09 10:31:00,
2013-05-09 06:40:00,58.6,58.4,29.89,North,0,0.0,1.0,99,0.00,FEW,SCT,0.06,0.0,WeatherDisplay:10.37,2013-05-09 10:40:00,
2013-05-09 06:45:00,58.5,58.2,29.89,North,0,0.0,2.0,99,0.00,FEW,SCT,0.06,0.0,WeatherDisplay:10.37,2013-05-09 10:45:00,
2013-05-09 06:55:00,58.5,58.2,29.90,NNE,23,0.0,3.0,99,0.00,FEW,SCT,0.06,0.0,WeatherDisplay:10.37,2013-05-09 10:55:00,
2013-05-09 07:01:00,58.3,58.0,29.90,East,93,0.0,2.0,99,0.00,FEW,SCT,0.06,0.0,WeatherDisplay:10.37,2013-05-09 11:01:00,
2013-05-09 07:10:00,58.3,58.0,29.90,SE,127,0.0,2.0,99,0.00,OVC,SCT,0.06,0.0,WeatherDisplay:10.37,2013-05-09 11:10:00,
2013-05-09 07:15:00,58.3,58.0,29.90,ESE,103,0.0,2.0,99,0.00,OVC,SCT,0.06,0.0,WeatherDisplay:10.37,2013-05-09 11:15:00,
2013-05-09 07:25:00,58.3,58.0,29.91,SE,141,0.0,1.0,99,0.00,OVC,SCT,0.06,0.0,WeatherDisplay:10.37,2013-05-09 11:25:00,
2013-05-09 07:30:00,58.5,58.2,29.91,SE,124,1.0,2.0,99,0.00,OVC,SCT,0.06,0.0,WeatherDisplay:10.37,2013-05-09 11:30:00,
2013-05-09 07:40:00,58.8,58.5,29.91,ENE,71,0.0,2.0,99,0.00,OVC,SCT,0.06,0.0,WeatherDisplay:10.37,2013-05-09 11:40:00,
2013-05-09 07:45:00,58.8,58.5,29.91,ENE,65,0.0,1.0,99,0.00,OVC,SCT,0.06,0.0,WeatherDisplay:10.37,2013-05-09 11:45:00,
2013-05-09 07:55:00,58.5,58.2,29.91,NNE,31,0.0,2.0,99,0.00,OVC,SCT,0.06,0.0,WeatherDisplay:10.37,2013-05-09 11:55:00,
2013-05-09 08:01:00,58.5,58.2,29.92,North,3,0.0,2.0,99,0.00,OVC,SCT,0.06,0.0,WeatherDisplay:10.37,2013-05-09 12:01:00,
2013-05-09 08:10:00,58.5,58.2,29.91,NE,54,0.0,1.0,99,0.00,BKN,SCT,0.06,0.0,WeatherDisplay:10.37,2013-05-09 12:10:00,
2013-05-09 08:15:00,58.5,58.2,29.91,East,90,0.0,1.0,99,0.00,BKN,SCT,0.06,0.0,WeatherDisplay:10.37,2013-05-09 12:15:00,
2013-05-09 08:25:00,58.6,58.4,29.91,East,90,0.0,1.0,99,0.00,SCT,SCT,0.06,0.0,WeatherDisplay:10.37,2013-05-09 12:25:00,
2013-05-09 08:31:00,58.8,58.5,29.90,East,90,0.0,1.0,99,0.00,SCT,SCT,0.06,0.0,WeatherDisplay:10.37,2013-05-09 12:31:00,
2013-05-09 08:40:00,59.2,58.9,29.90,East,90,0.0,2.0,99,0.00,SCT,SCT,0.06,0.0,WeatherDisplay:10.37,2013-05-09 12:40:00,
2013-05-09 08:45:00,59.5,59.2,29.90,ENE,69,0.0,2.0,99,0.00,SCT,SCT,0.06,0.0,WeatherDisplay:10.37,2013-05-09 12:45:00,
2013-05-09 08:55:00,60.3,60.1,29.90,NNW,328,0.0,1.0,99,0.00,SCT,SCT,0.06,0.0,WeatherDisplay:10.37,2013-05-09 12:55:00,
2013-05-09 09:01:00,60.6,60.3,29.90,NW,325,1.0,2.0,99,0.00,SCT,SCT,0.06,0.0,WeatherDisplay:10.37,2013-05-09 13:01:00,
2013-05-09 09:10:00,60.3,60.1,29.90,NNE,24,0.0,2.0,99,0.00,SCT,SCT,0.06,0.0,WeatherDisplay:10.37,2013-05-09 13:10:00,
2013-05-09 09:15:00,60.3,60.0,29.91,NE,44,0.0,2.0,99,0.00,SCT,SCT,0.06,0.0,WeatherDisplay:10.37,2013-05-09 13:15:00,
2013-05-09 09:25:00,60.1,59.8,29.91,ESE,120,0.0,2.0,99,0.00,SCT,SCT,0.06,0.0,WeatherDisplay:10.37,2013-05-09 13:25:00,
2013-05-09 09:31:00,60.1,59.8,29.90,South,187,0.0,2.0,99,0.00,SCT,SCT,0.06,0.0,WeatherDisplay:10.37,2013-05-09 13:31:00,
2013-05-09 09:40:00,60.4,60.2,29.90,WNW,302,0.0,2.0,99,0.00,SCT,SCT,0.06,0.0,WeatherDisplay:10.37,2013-05-09 13:40:00,
2013-05-09 09:45:00,60.6,60.3,29.90,WSW,250,0.0,2.0,99,0.00,SCT,SCT,0.06,0.0,WeatherDisplay:10.37,2013-05-09 13:45:00,
2013-05-09 09:55:00,60.9,60.6,29.90,East,93,0.0,2.0,99,0.00,SCT,SCT,0.06,0.0,WeatherDisplay:10.37,2013-05-09 13:55:00,
2013-05-09 10:01:00,60.8,60.5,29.90,NE,52,0.0,2.0,99,0.00,SCT,SCT,0.06,0.0,WeatherDisplay:10.37,2013-05-09 14:01:00,
2013-05-09 10:10:00,61.2,60.9,29.89,North,0,0.0,1.0,99,0.00,-RA,SCT,0.06,0.0,WeatherDisplay:10.37,2013-05-09 14:10:00,
2013-05-09 10:15:00,61.2,60.9,29.89,North,0,0.0,2.0,99,0.00,-RA,SCT,0.06,0.0,WeatherDisplay:10.37,2013-05-09 14:15:00,
2013-05-09 10:25:00,61.7,61.4,29.90,North,0,0.0,1.0,99,0.00,-RA,SCT,0.06,0.0,WeatherDisplay:10.37,2013-05-09 14:25:00,
2013-05-09 10:31:00,62.0,61.7,29.89,North,0,0.0,1.0,99,0.00,-RA,SCT,0.06,0.0,WeatherDisplay:10.37,2013-05-09 14:31:00,
2013-05-09 10:40:00,62.8,62.5,29.89,North,8,0.0,2.0,99,0.00,-RA,SCT,0.06,0.0,WeatherDisplay:10.37,2013-05-09 14:40:00,
2013-05-09 10:45:00,62.7,62.4,29.89,North,9,0.0,2.0,99,0.00,-RA,SCT,0.06,0.0,WeatherDisplay:10.37,2013-05-09 14:45:00,
2013-05-09 10:55:00,63.3,63.0,29.89,NW,320,1.0,3.0,99,0.00,-RA,SCT,0.06,0.0,WeatherDisplay:10.37,2013-05-09 14:55:00,
2013-05-09 11:01:00,64.2,63.9,29.89,West,281,0.0,2.0,99,0.00,-RA,SCT,0.06,0.0,WeatherDisplay:10.37,2013-05-09 15:01:00,
2013-05-09 11:10:00,64.7,64.4,29.89,NW,304,0.0,2.0,99,0.00,BKN,SCT,0.06,0.0,WeatherDisplay:10.37,2013-05-09 15:10:00,
2013-05-09 11:15:00,65.7,65.4,29.89,NNW,336,0.0,2.0,99,0.00,BKN,SCT,0.06,0.0,WeatherDisplay:10.37,2013-05-09 15:15:00,
2013-05-09 11:25:00,65.3,63.5,29.88,NE,52,1.0,2.0,94,0.00,BKN,SCT,0.06,0.0,WeatherDisplay:10.37,2013-05-09 15:25:00,
2013-05-09 11:31:00,65.3,63.5,29.88,ENE,61,0.0,3.0,94,0.00,BKN,SCT,0.06,0.0,WeatherDisplay:10.37,2013-05-09 15:31:00,
2013-05-09 11:40:00,65.1,63.3,29.88,North,0,0.0,2.0,94,0.00,BKN,SCT,0.06,0.0,WeatherDisplay:10.37,2013-05-09 15:40:00,
2013-05-09 11:45:00,64.8,62.7,29.88,North,0,0.0,2.0,93,0.00,BKN,SCT,0.06,0.0,WeatherDisplay:10.37,2013-05-09 15:45:00,
2013-05-09 11:55:00,64.6,62.8,29.88,North,0,0.0,1.0,94,0.00,-RA,SCT,0.06,0.0,WeatherDisplay:10.37,2013-05-09 15:55:00,
2013-05-09 12:01:00,64.6,62.5,29.88,NNW,348,0.0,2.0,93,0.00,-RA,SCT,0.06,0.0,WeatherDisplay:10.37,2013-05-09 16:01:00,
2013-05-09 12:10:00,64.2,63.4,29.89,WSW,248,0.0,1.0,97,0.00,-RA,SCT,0.06,0.0,WeatherDisplay:10.37,2013-05-09 16:10:00,
2013-05-09 12:15:00,64.2,63.6,29.89,WSW,248,0.0,1.0,98,0.01,-RA,SCT,0.07,0.0,WeatherDisplay:10.37,2013-05-09 16:15:00,
2013-05-09 12:25:00,63.6,63.3,29.89,West,262,0.0,2.0,99,0.01,-RA,SCT,0.08,0.0,WeatherDisplay:10.37,2013-05-09 16:25:00,
2013-05-09 12:31:00,63.3,63.0,29.88,NW,323,0.0,2.0,99,0.00,-RA,SCT,0.08,0.0,WeatherDisplay:10.37,2013-05-09 16:31:00,
2013-05-09 12:40:00,63.0,62.7,29.88,North,0,0.0,1.0,99,0.00,-RA,SCT,0.09,0.0,WeatherDisplay:10.37,2013-05-09 16:40:00,
2013-05-09 12:45:00,62.7,62.4,29.88,North,0,0.0,2.0,99,0.01,-RA,SCT,0.11,0.0,WeatherDisplay:10.37,2013-05-09 16:45:00,
2013-05-09 12:55:00,62.5,62.2,29.87,NNE,24,0.0,2.0,99,0.01,-RA,SCT,0.13,0.0,WeatherDisplay:10.37,2013-05-09 16:55:00,
2013-05-09 13:01:00,62.2,62.0,29.87,NE,45,0.0,2.0,99,0.00,-RA,SCT,0.13,0.0,WeatherDisplay:10.37,2013-05-09 17:01:00,
2013-05-09 13:10:00,62.6,62.3,29.87,NE,45,0.0,1.0,99,0.00,-RA,SCT,0.15,0.0,WeatherDisplay:10.37,2013-05-09 17:10:00,
2013-05-09 13:15:00,62.6,62.3,29.87,NE,45,0.0,1.0,99,0.01,-RA,SCT,0.17,0.0,WeatherDisplay:10.37,2013-05-09 17:15:00,
2013-05-09 13:25:00,62.4,62.1,29.87,NE,45,0.0,1.0,99,0.00,-RA,SCT,0.17,0.0,WeatherDisplay:10.37,2013-05-09 17:25:00,
2013-05-09 13:31:00,62.1,61.8,29.87,NE,45,0.0,1.0,99,0.01,-RA,SCT,0.18,0.0,WeatherDisplay:10.37,2013-05-09 17:31:00,
2013-05-09 13:41:00,61.9,61.6,29.85,NNE,18,0.0,2.0,99,0.01,-RA,SCT,0.20,0.0,WeatherDisplay:10.37,2013-05-09 17:41:00,
2013-05-09 13:50:00,61.9,61.6,29.84,East,84,2.0,6.0,99,0.00,-RA,SCT,0.20,0.0,WeatherDisplay:10.37,2013-05-09 17:50:00,
2013-05-09 13:55:00,61.9,61.6,29.84,East,80,0.0,6.0,99,0.00,-RA,SCT,0.20,0.0,WeatherDisplay:10.37,2013-05-09 17:55:00,
2013-05-09 14:01:00,62.1,61.8,29.84,ENE,77,0.0,2.0,99,0.01,-RA,SCT,0.21,0.0,WeatherDisplay:10.37,2013-05-09 18:01:00,
2013-05-09 14:10:00,62.4,62.1,29.85,SSW,195,0.0,3.0,99,0.00,-RA,SCT,0.22,0.0,WeatherDisplay:10.37,2013-05-09 18:10:00,
2013-05-09 14:15:00,63.0,62.7,29.84,SSW,203,0.0,2.0,99,0.00,-RA,SCT,0.22,0.0,WeatherDisplay:10.37,2013-05-09 18:15:00,
2013-05-09 14:25:00,63.3,63.0,29.84,SSE,153,1.0,2.0,99,0.00,-RA,SCT,0.22,0.0,WeatherDisplay:10.37,2013-05-09 18:25:00,
2013-05-09 14:31:00,64.5,64.2,29.84,SSW,197,0.0,2.0,99,0.00,-RA,SCT,0.22,0.0,WeatherDisplay:10.37,2013-05-09 18:31:00,
2013-05-09 14:40:00,65.8,65.6,29.84,ESE,111,0.0,2.0,99,0.00,-RA,SCT,0.22,0.0,WeatherDisplay:10.37,2013-05-09 18:40:00,
2013-05-09 14:45:00,65.9,65.6,29.84,ESE,118,1.0,2.0,99,0.00,-RA,SCT,0.22,0.0,WeatherDisplay:10.37,2013-05-09 18:45:00,
2013-05-09 14:55:00,66.4,66.1,29.83,East,92,0.0,2.0,99,0.00,-RA,SCT,0.22,0.0,WeatherDisplay:10.37,2013-05-09 18:55:00,
2013-05-09 15:01:00,67.0,66.7,29.83,ENE,61,0.0,2.0,99,0.00,-RA,SCT,0.22,0.0,WeatherDisplay:10.37,2013-05-09 19:01:00,
2013-05-09 15:10:00,68.8,67.3,29.83,NE,56,1.0,4.0,95,0.00,FEW,SCT,0.22,0.0,WeatherDisplay:10.37,2013-05-09 19:10:00,
2013-05-09 15:15:00,68.2,66.7,29.83,East,91,0.0,3.0,95,0.00,FEW,SCT,0.22,0.0,WeatherDisplay:10.37,2013-05-09 19:15:00,
2013-05-09 15:25:00,69.1,66.7,29.82,East,85,0.0,2.0,92,0.00,OVC,SCT,0.22,0.0,WeatherDisplay:10.37,2013-05-09 19:25:00,
2013-05-09 15:31:00,69.1,65.7,29.82,South,186,0.0,2.0,89,0.00,OVC,SCT,0.22,0.0,WeatherDisplay:10.37,2013-05-09 19:31:00,
2013-05-09 15:40:00,69.7,66.0,29.82,SSW,212,0.0,2.0,88,0.00,OVC,SCT,0.22,0.0,WeatherDisplay:10.37,2013-05-09 19:40:00,
2013-05-09 15:45:00,72.2,68.1,29.81,SE,145,0.0,2.0,87,0.00,OVC,SCT,0.22,0.0,WeatherDisplay:10.37,2013-05-09 19:45:00,
2013-05-09 15:55:00,73.4,65.4,29.80,NE,34,0.0,3.0,76,0.00,OVC,SCT,0.22,0.0,WeatherDisplay:10.37,2013-05-09 19:55:00,
2013-05-09 16:01:00,71.8,63.9,29.81,NE,50,0.0,3.0,76,0.00,OVC,SCT,0.22,0.0,WeatherDisplay:10.37,2013-05-09 20:01:00,
2013-05-09 16:10:00,70.1,62.9,29.81,East,81,0.0,1.0,78,0.00,BKN,SCT,0.22,0.0,WeatherDisplay:10.37,2013-05-09 20:10:00,
2013-05-09 16:15:00,69.7,63.6,29.80,West,270,0.0,2.0,81,0.00,BKN,SCT,0.22,0.0,WeatherDisplay:10.37,2013-05-09 20:15:00,
2013-05-09 16:25:00,69.4,63.7,29.80,East,93,0.0,2.0,82,0.00,BKN,SCT,0.22,0.0,WeatherDisplay:10.37,2013-05-09 20:25:00,
2013-05-09 16:31:00,68.8,62.7,29.80,SSE,160,1.0,4.0,81,0.00,BKN,SCT,0.22,0.0,WeatherDisplay:10.37,2013-05-09 20:31:00,
2013-05-09 16:40:00,69.9,64.5,29.80,SSW,205,0.0,1.0,83,0.00,BKN,SCT,0.22,0.0,WeatherDisplay:10.37,2013-05-09 20:40:00,
2013-05-09 16:45:00,69.9,63.8,29.80,South,186,0.0,4.0,81,0.00,BKN,SCT,0.22,0.0,WeatherDisplay:10.37,2013-05-09 20:45:00,
2013-05-09 16:55:00,69.1,62.3,29.80,SE,144,1.0,3.0,79,0.00,BKN,SCT,0.22,0.0,WeatherDisplay:10.37,2013-05-09 20:55:00,
2013-05-09 17:00:00,68.9,62.5,29.80,South,171,0.0,3.0,80,0.00,BKN,SCT,0.22,0.0,WeatherDisplay:10.37,2013-05-09 21:00:00,
2013-05-09 17:10:00,68.7,62.7,29.80,SSW,197,0.0,2.0,81,0.00,BKN,SCT,0.22,0.0,WeatherDisplay:10.37,2013-05-09 21:10:00,
2013-05-09 17:15:00,68.6,62.9,29.80,SE,131,0.0,2.0,82,0.00,BKN,SCT,0.22,0.0,WeatherDisplay:10.37,2013-05-09 21:15:00,
2013-05-09 17:25:00,67.6,63.3,29.80,SSW,199,0.0,2.0,86,0.00,BKN,SCT,0.22,0.0,WeatherDisplay:10.37,2013-05-09 21:25:00,
2013-05-09 17:30:00,66.8,63.8,29.80,SSW,203,0.0,2.0,90,0.00,BKN,SCT,0.22,0.0,WeatherDisplay:10.37,2013-05-09 21:30:00,
2013-05-09 17:40:00,65.1,63.3,29.80,West,261,0.0,2.0,94,0.01,RA,SCT,0.24,0.0,WeatherDisplay:10.37,2013-05-09 21:40:00,
2013-05-09 17:45:00,64.4,63.2,29.81,SW,216,0.0,3.0,96,0.00,RA,SCT,0.24,0.0,WeatherDisplay:10.37,2013-05-09 21:45:00,
2013-05-09 17:55:00,63.7,63.4,29.81,SW,217,0.0,2.0,99,0.00,RA,SCT,0.25,0.0,WeatherDisplay:10.37,2013-05-09 21:55:00,
2013-05-09 18:01:00,63.3,63.0,29.81,SW,225,0.0,2.0,99,0.01,RA,SCT,0.26,0.0,WeatherDisplay:10.37,2013-05-09 22:01:00,
2013-05-09 18:10:00,63.0,62.7,29.81,SW,225,0.0,2.0,99,0.01,RA,SCT,0.27,0.0,WeatherDisplay:10.37,2013-05-09 22:10:00,
2013-05-09 18:15:00,62.8,62.5,29.81,South,180,0.0,3.0,99,0.01,RA,SCT,0.28,0.0,WeatherDisplay:10.37,2013-05-09 22:15:00,
2013-05-09 18:25:00,62.4,62.1,29.81,East,90,0.0,1.0,99,0.00,SCT,SCT,0.28,0.0,WeatherDisplay:10.37,2013-05-09 22:25:00,
2013-05-09 18:30:00,62.2,62.0,29.81,ESE,102,0.0,2.0,99,0.00,SCT,SCT,0.28,0.0,WeatherDisplay:10.37,2013-05-09 22:30:00,
2013-05-09 18:40:00,61.9,61.6,29.81,SE,134,0.0,4.0,99,0.00,SCT,SCT,0.28,0.0,WeatherDisplay:10.37,2013-05-09 22:40:00,
2013-05-09 18:45:00,61.6,61.3,29.80,SE,128,1.0,6.0,99,0.00,SCT,SCT,0.28,0.0,WeatherDisplay:10.37,2013-05-09 22:45:00,
2013-05-09 18:55:00,61.2,60.9,29.80,SSW,194,1.0,2.0,99,0.00,BKN,SCT,0.28,0.0,WeatherDisplay:10.37,2013-05-09 22:55:00,
2013-05-09 19:01:00,61.2,60.9,29.80,SSW,205,0.0,2.0,99,0.00,BKN,SCT,0.28,0.0,WeatherDisplay:10.37,2013-05-09 23:01:00,
2013-05-09 19:10:00,61.2,60.9,29.79,South,180,0.0,2.0,99,0.00,SCT,SCT,0.28,0.0,WeatherDisplay:10.37,2013-05-09 23:10:00,
2013-05-09 19:15:00,61.2,60.9,29.79,South,180,0.0,2.0,99,0.00,SCT,SCT,0.28,0.0,WeatherDisplay:10.37,2013-05-09 23:15:00,
2013-05-09 19:20:00,61.0,60.7,29.79,South,180,0.0,1.0,99,0.00,SCT,SCT,0.28,0.0,WeatherDisplay:10.37,2013-05-09 23:20:00,
2013-05-09 19:30:00,60.8,60.5,29.80,ESE,111,0.0,1.0,99,0.00,SCT,SCT,0.28,0.0,WeatherDisplay:10.37,2013-05-09 23:30:00,
2013-05-09 19:40:00,60.6,60.3,29.81,East,90,0.0,2.0,99,0.00,-RA,SCT,0.28,0.0,WeatherDisplay:10.37,2013-05-09 23:40:00,
2013-05-09 19:45:00,60.4,60.2,29.81,ESE,102,0.0,2.0,99,0.00,-RA,SCT,0.28,0.0,WeatherDisplay:10.37,2013-05-09 23:45:00,
2013-05-09 19:55:00,60.2,59.9,29.80,SW,225,0.0,1.0,99,0.00,-RA,SCT,0.28,0.0,WeatherDisplay:10.37,2013-05-09 23:55:00,
2013-05-09 20:00:00,60.1,59.8,29.80,SW,225,0.0,2.0,99,0.00,-RA,SCT,0.28,0.0,WeatherDisplay:10.37,2013-05-10 00:00:00,
2013-05-09 20:10:00,59.9,59.6,29.80,SW,225,0.0,1.0,99,0.00,SCT,SCT,0.28,0.0,WeatherDisplay:10.37,2013-05-10 00:10:00,
2013-05-09 20:15:00,59.7,59.4,29.80,SW,225,0.0,0.0,99,0.00,SCT,SCT,0.28,0.0,WeatherDisplay:10.37,2013-05-10 00:15:00,
2013-05-09 20:25:00,59.5,59.3,29.81,SW,225,0.0,2.0,99,0.00,SCT,SCT,0.28,0.0,WeatherDisplay:10.37,2013-05-10 00:25:00,
2013-05-09 20:30:00,59.4,59.1,29.81,SW,225,0.0,1.0,99,0.00,SCT,SCT,0.28,0.0,WeatherDisplay:10.37,2013-05-10 00:30:00,
2013-05-09 20:40:00,59.2,58.9,29.81,SW,225,0.0,1.0,99,0.00,SCT,SCT,0.28,0.0,WeatherDisplay:10.37,2013-05-10 00:40:00,
2013-05-09 20:45:00,59.2,58.9,29.81,SW,225,0.0,2.0,99,0.00,SCT,SCT,0.28,0.0,WeatherDisplay:10.37,2013-05-10 00:45:00,
2013-05-09 20:55:00,59.0,58.7,29.81,SW,225,0.0,1.0,99,0.00,SCT,SCT,0.28,0.0,WeatherDisplay:10.37,2013-05-10 00:55:00,
2013-05-09 21:00:00,58.8,58.5,29.81,SW,225,0.0,1.0,99,0.00,SCT,SCT,0.28,0.0,WeatherDisplay:10.37,2013-05-10 01:00:00,
2013-05-09 21:10:00,58.8,58.5,29.82,SW,225,0.0,1.0,99,0.00,BKN,SCT,0.28,0.0,WeatherDisplay:10.37,2013-05-10 01:10:00,
2013-05-09 21:15:00,58.6,58.4,29.82,SW,225,0.0,0.0,99,0.00,BKN,SCT,0.28,0.0,WeatherDisplay:10.37,2013-05-10 01:15:00,
2013-05-09 21:25:00,58.5,58.3,29.83,SW,225,0.0,0.0,99,0.00,BKN,SCT,0.28,0.0,WeatherDisplay:10.37,2013-05-10 01:25:00,
2013-05-09 21:30:00,58.5,58.2,29.83,SW,225,0.0,0.0,99,0.00,BKN,SCT,0.28,0.0,WeatherDisplay:10.37,2013-05-10 01:30:00,
2013-05-09 21:40:00,58.5,58.2,29.82,SW,225,0.0,0.0,99,0.00,BKN,SCT,0.28,0.0,WeatherDisplay:10.37,2013-05-10 01:40:00,
2013-05-09 21:45:00,58.5,58.2,29.83,SW,225,0.0,0.0,99,0.00,BKN,SCT,0.28,0.0,WeatherDisplay:10.37,2013-05-10 01:45:00,
2013-05-09 21:55:00,58.3,58.0,29.83,SW,225,0.0,1.0,99,0.00,BKN,SCT,0.28,0.0,WeatherDisplay:10.37,2013-05-10 01:55:00,
2013-05-09 22:01:00,58.3,58.0,29.83,SW,225,0.0,1.0,99,0.00,BKN,SCT,0.28,0.0,WeatherDisplay:10.37,2013-05-10 02:01:00,
2013-05-09 22:10:00,58.3,58.0,29.82,SW,225,0.0,0.0,99,0.00,BKN,SCT,0.28,0.0,WeatherDisplay:10.37,2013-05-10 02:10:00,
2013-05-09 22:16:00,58.3,58.0,29.82,SW,225,0.0,1.0,99,0.00,BKN,SCT,0.28,0.0,WeatherDisplay:10.37,2013-05-10 02:16:00,
2013-05-09 22:25:00,58.1,57.8,29.82,SW,225,0.0,1.0,99,0.00,OVC,SCT,0.28,0.0,WeatherDisplay:10.37,2013-05-10 02:25:00,
2013-05-09 22:31:00,58.1,57.8,29.82,SW,225,0.0,1.0,99,0.00,OVC,SCT,0.28,0.0,WeatherDisplay:10.37,2013-05-10 02:31:00,
2013-05-09 22:40:00,57.8,57.5,29.82,SW,225,0.0,0.0,99,0.00,OVC,SCT,0.28,0.0,WeatherDisplay:10.37,2013-05-10 02:40:00,
2013-05-09 22:45:00,57.7,57.5,29.81,SW,225,0.0,0.0,99,0.01,RA,SCT,0.29,0.0,WeatherDisplay:10.37,2013-05-10 02:45:00,
2013-05-09 22:55:00,57.6,57.3,29.81,SW,225,0.0,1.0,99,0.00,OVC,SCT,0.29,0.0,WeatherDisplay:10.37,2013-05-10 02:55:00,
2013-05-09 23:01:00,57.4,57.2,29.81,SW,225,0.0,0.0,99,0.00,OVC,SCT,0.29,0.0,WeatherDisplay:10.37,2013-05-10 03:01:00,
2013-05-09 23:10:00,57.4,57.1,29.81,SW,225,0.0,1.0,99,0.00,FEW,SCT,0.29,0.0,WeatherDisplay:10.37,2013-05-10 03:10:00,
2013-05-09 23:15:00,57.4,57.1,29.81,SW,225,0.0,1.0,99,0.00,FEW,SCT,0.29,0.0,WeatherDisplay:10.37,2013-05-10 03:15:00,
2013-05-09 23:25:00,57.4,57.1,29.81,SW,225,0.0,1.0,99,0.00,FEW,SCT,0.29,0.0,WeatherDisplay:10.37,2013-05-10 03:25:00,
2013-05-09 23:31:00,57.3,57.1,29.81,SW,225,0.0,1.0,99,0.00,FEW,SCT,0.29,0.0,WeatherDisplay:10.37,2013-05-10 03:31:00,
2013-05-09 23:40:00,57.2,56.9,29.81,SW,225,0.0,2.0,99,0.00,CLR,SCT,0.29,0.0,WeatherDisplay:10.37,2013-05-10 03:40:00,
2013-05-09 23:45:00,57.2,56.9,29.81,SW,225,0.0,1.0,99,0.00,CLR,SCT,0.29,0.0,WeatherDisplay:10.37,2013-05-10 03:45:00,
2013-05-09 23:55:00,56.8,56.6,29.81,SW,225,0.0,1.0,99,0.00,-RA,SCT,0.29,0.0,WeatherDisplay:10.37,2013-05-10 03:55:00,